When you browse on this site, cookies collect data to enhance your experience and personalize the content and advertising you see.
Visit our Privacy Policy to learn more. By continuing to use the site, you agree to this use of cookies and data.
  • In Latvia
  • List of Countries
  • For 7 days
  • Water Temperature
  • Weather Map
  • Weather Widgets
  • user-avatar
    Login

    Hourly Weather Ordino

    Today, 26 February, Wednesday

    Time Temperature Precipitation Wind Pressure Humidity
    00:00 0°C° 0.1 mm 3 mps 629 mmHg 91%
    01:00 -1°C° 0 mm 3 mps 629 mmHg 90%
    02:00 -1°C° 0 mm 2 mps 628 mmHg 89%
    03:00 -2°C° 0 mm 2 mps 628 mmHg 88%
    04:00 -2°C° 0 mm 2 mps 628 mmHg 86%
    05:00 -2°C° 0 mm 2 mps 628 mmHg 84%
    06:00 -2°C° 0 mm 2 mps 627 mmHg 83%
    07:00 -1°C° 0.2 mm 3 mps 628 mmHg 76%
    08:00 0°C° 0.2 mm 3 mps 629 mmHg 70%
    09:00 +1°C° 0.2 mm 3 mps 629 mmHg 64%
    10:00 +1°C° 0.1 mm 3 mps 630 mmHg 61%
    11:00 +2°C° 0.1 mm 3 mps 630 mmHg 58%
    12:00 +3°C° 0.1 mm 4 mps 630 mmHg 55%
    13:00 +1°C° 0.2 mm 4 mps 630 mmHg 57%
    14:00 +1°C° 0.2 mm 4 mps 630 mmHg 59%
    15:00 +1°C° 0.2 mm 3 mps 629 mmHg 60%
    16:00 0°C° 0.2 mm 3 mps 629 mmHg 67%
    17:00 -1°C° 0.2 mm 3 mps 629 mmHg 73%
    18:00 -3°C° 0.2 mm 2 mps 629 mmHg 80%
    19:00 -3°C° 0 mm 2 mps 629 mmHg 81%
    20:00 -3°C° 0 mm 2 mps 630 mmHg 81%
    21:00 -4°C° 0 mm 2 mps 630 mmHg 82%
    22:00 -4°C° 0 mm 2 mps 630 mmHg 81%
    23:00 -2°C° 0 mm 1 mps 630 mmHg 80%

    Tomorrow, 27 February, Thursday

    Time Temperature Precipitation Wind Pressure Humidity
    00:00 -2°C° 0 mm 1 mps 630 mmHg 79%
    01:00 -2°C° 0 mm 1 mps 630 mmHg 74%
    02:00 -2°C° 0 mm 1 mps 629 mmHg 68%
    03:00 -2°C° 0 mm 1 mps 629 mmHg 63%
    04:00 -2°C° 0 mm 1 mps 629 mmHg 64%
    05:00 -2°C° 0 mm 1 mps 629 mmHg 65%
    06:00 -2°C° 0 mm 1 mps 629 mmHg 65%
    07:00 0°C° 0 mm 1 mps 630 mmHg 62%
    08:00 +2°C° 0 mm 1 mps 630 mmHg 59%
    09:00 +4°C° 0 mm 1 mps 631 mmHg 55%
    10:00 +5°C° 0 mm 1 mps 631 mmHg 51%
    11:00 +6°C° 0 mm 2 mps 632 mmHg 46%
    12:00 +7°C° 0 mm 3 mps 632 mmHg 41%
    13:00 +7°C° 0 mm 2 mps 632 mmHg 47%
    14:00 +7°C° 0 mm 2 mps 631 mmHg 52%
    15:00 +7°C° 0 mm 2 mps 631 mmHg 57%
    16:00 +5°C° 0.2 mm 2 mps 630 mmHg 68%
    17:00 +4°C° 0.2 mm 2 mps 630 mmHg 79%
    18:00 +2°C° 0.2 mm 2 mps 630 mmHg 89%
    19:00 +2°C° 0.3 mm 2 mps 630 mmHg 91%
    20:00 +2°C° 0.3 mm 2 mps 630 mmHg 93%
    21:00 +3°C° 0.3 mm 2 mps 631 mmHg 95%
    22:00 +2°C° 0.3 mm 2 mps 631 mmHg 96%
    23:00 +2°C° 0.3 mm 2 mps 631 mmHg 96%

    Day after tomorrow, 28 February, Friday

    Time Temperature Precipitation Wind Pressure Humidity
    00:00 +2°C° 0.3 mm 2 mps 631 mmHg 96%
    01:00 +3°C° 0.2 mm 1 mps 631 mmHg 96%
    02:00 +3°C° 0.2 mm 1 mps 631 mmHg 96%
    03:00 +3°C° 0.2 mm 1 mps 632 mmHg 95%
    04:00 +3°C° 0 mm 1 mps 632 mmHg 94%
    05:00 +3°C° 0 mm 1 mps 632 mmHg 93%
    06:00 +3°C° 0 mm 1 mps 632 mmHg 92%
    07:00 +4°C° 0 mm 1 mps 632 mmHg 85%
    08:00 +6°C° 0 mm 1 mps 633 mmHg 78%
    09:00 +7°C° 0 mm 0 mps 634 mmHg 71%
    10:00 +9°C° 0 mm 1 mps 634 mmHg 68%
    11:00 +10°C° 0 mm 1 mps 635 mmHg 65%
    12:00 +11°C° 0 mm 1 mps 635 mmHg 62%
    13:00 +11°C° 0 mm 1 mps 634 mmHg 64%
    14:00 +10°C° 0 mm 1 mps 634 mmHg 66%
    15:00 +10°C° 0 mm 1 mps 634 mmHg 68%
    16:00 +9°C° 0 mm 1 mps 633 mmHg 76%
    17:00 +7°C° 0 mm 1 mps 632 mmHg 84%
    18:00 +6°C° 0 mm 1 mps 631 mmHg 92%
    19:00 +5°C° 0 mm 1 mps 631 mmHg 93%
    20:00 +5°C° 0 mm 1 mps 631 mmHg 93%
    21:00 +4°C° 0 mm 2 mps 631 mmHg 93%
    22:00 +4°C° 0 mm 2 mps 630 mmHg 92%
    23:00 +3°C° 0 mm 2 mps 629 mmHg 91%

    29 February, Saturday

    Time Temperature Precipitation Wind Pressure Humidity
    00:00 +3°C° 0 mm 2 mps 629 mmHg 90%
    01:00 +3°C° 0 mm 2 mps 628 mmHg 90%
    02:00 +3°C° 0 mm 2 mps 627 mmHg 89%
    03:00 +3°C° 0 mm 2 mps 626 mmHg 88%
    04:00 +3°C° 0 mm 2 mps 626 mmHg 87%
    05:00 +3°C° 0 mm 2 mps 626 mmHg 86%
    06:00 +2°C° 0 mm 2 mps 625 mmHg 85%
    07:00 +3°C° 0 mm 3 mps 625 mmHg 80%
    08:00 +4°C° 0 mm 3 mps 626 mmHg 74%
    09:00 +5°C° 0 mm 3 mps 626 mmHg 68%
    10:00 +8°C° 0 mm 3 mps 627 mmHg 64%
    11:00 +9°C° 0 mm 2 mps 627 mmHg 59%
    12:00 +10°C° 0 mm 2 mps 628 mmHg 54%
    13:00 +9°C° 0 mm 2 mps 627 mmHg 60%
    14:00 +8°C° 0 mm 2 mps 626 mmHg 66%
    15:00 +7°C° 0 mm 2 mps 626 mmHg 72%
    16:00 +6°C° 0.1 mm 2 mps 626 mmHg 78%
    17:00 +5°C° 0.1 mm 2 mps 626 mmHg 84%
    18:00 +4°C° 0.1 mm 1 mps 626 mmHg 90%
    19:00 +4°C° 0.2 mm 1 mps 626 mmHg 91%
    20:00 +4°C° 0.2 mm 1 mps 626 mmHg 92%
    21:00 +3°C° 0.2 mm 1 mps 627 mmHg 94%
    22:00 +3°C° 0.3 mm 1 mps 627 mmHg 94%
    23:00 +3°C° 0.3 mm 1 mps 627 mmHg 94%

    1 March, Sunday

    Time Temperature Precipitation Wind Pressure Humidity
    00:00 +3°C° 0.3 mm 1 mps 627 mmHg 95%
    01:00 +2°C° 0.1 mm 1 mps 626 mmHg 95%
    02:00 +2°C° 0.1 mm 1 mps 626 mmHg 95%
    03:00 +1°C° 0.1 mm 0 mps 626 mmHg 95%
    04:00 +2°C° 0 mm 1 mps 626 mmHg 95%
    05:00 +2°C° 0 mm 1 mps 626 mmHg 95%
    06:00 +2°C° 0 mm 1 mps 626 mmHg 95%
    07:00 +2°C° 0 mm 1 mps 626 mmHg 91%
    08:00 +2°C° 0 mm 2 mps 626 mmHg 88%
    09:00 +2°C° 0 mm 2 mps 626 mmHg 84%
    10:00 +2°C° 0 mm 3 mps 626 mmHg 79%
    11:00 +3°C° 0 mm 3 mps 626 mmHg 73%
    12:00 +4°C° 0 mm 3 mps 626 mmHg 68%
    13:00 +4°C° 0.2 mm 3 mps 626 mmHg 73%
    14:00 +4°C° 0.2 mm 3 mps 625 mmHg 78%
    15:00 +3°C° 0.2 mm 3 mps 625 mmHg 83%
    16:00 +3°C° 0 mm 2 mps 625 mmHg 86%
    17:00 +3°C° 0 mm 2 mps 624 mmHg 89%
    18:00 +2°C° 0 mm 2 mps 624 mmHg 92%
    19:00 +2°C° 0 mm 2 mps 624 mmHg 92%
    20:00 +2°C° 0 mm 2 mps 624 mmHg 92%
    21:00 +1°C° 0 mm 2 mps 624 mmHg 92%
    22:00 +1°C° 0 mm 2 mps 624 mmHg 92%
    23:00 +1°C° 0 mm 2 mps 624 mmHg 92%

    2 March, Monday

    Time Temperature Precipitation Wind Pressure Humidity
    00:00 +1°C° 0 mm 2 mps 624 mmHg 92%
    01:00 +2°C° 0 mm 2 mps 623 mmHg 92%
    02:00 +2°C° 0 mm 2 mps 622 mmHg 92%
    03:00 +2°C° 0 mm 2 mps 622 mmHg 92%
    04:00 +1°C° 0.9 mm 2 mps 621 mmHg 93%
    05:00 +2°C° 0.9 mm 1 mps 620 mmHg 95%
    06:00 +2°C° 0.9 mm 1 mps 620 mmHg 96%
    07:00 +2°C° 0.8 mm 1 mps 620 mmHg 96%
    08:00 +1°C° 0.8 mm 2 mps 619 mmHg 95%
    09:00 +2°C° 0.8 mm 2 mps 619 mmHg 94%
    10:00 +2°C° 0.2 mm 2 mps 619 mmHg 90%
    11:00 +2°C° 0.2 mm 3 mps 619 mmHg 85%
    12:00 +3°C° 0.2 mm 3 mps 620 mmHg 81%
    13:00 +3°C° 0.7 mm 3 mps 619 mmHg 84%
    14:00 +2°C° 0.7 mm 3 mps 618 mmHg 87%
    15:00 +3°C° 0.7 mm 2 mps 618 mmHg 90%
    16:00 +1°C° 1.6 mm 2 mps 617 mmHg 91%
    17:00 -2°C° 1.6 mm 2 mps 617 mmHg 91%
    18:00 -3°C° 1.6 mm 2 mps 616 mmHg 92%
    19:00 -4°C° 0.3 mm 2 mps 616 mmHg 92%
    20:00 -4°C° 0.3 mm 2 mps 616 mmHg 92%
    21:00 -5°C° 0.3 mm 2 mps 616 mmHg 91%
    22:00 -4°C° 3.3 mm 2 mps 617 mmHg 93%
    23:00 -5°C° 3.3 mm 3 mps 618 mmHg 95%
    Show more